Location: Czekanka
(50.4925°N, 19.2643°E)
Time: 07:35:51
(UTC+00:00)

Cosmos 2263 Rocket - Pass Details

Date: 24 September 2024
Orbit: 821 x 849 km, 71.0° (Epoch: 12 October)

Event Time Altitude Azimuth Distance (km) Brightness Sun altitude
Exits shadow 02:57:28 - 193° (SSW) 3,201 4.9 -15.7°
Reaches altitude 10° 02:59:28 10° 189° (S) 2,442 4.3 -15.4°
Maximum altitude 03:04:57 57° 113° (ESE) 987 2.8 -14.6°
Drops below altitude 10° 03:10:30 10° 36° (NE) 2,476 5.4 -13.7°
Sets 03:13:00 0° 32° (NNE) 3,419 6.2 -13.4°
